| time (UTC) | temp C | wind direction | speed KPH | gust KPH | rain 1hr cm | rain 24hr cm | rain mn cm | humidity % | barometer mb |
| 20260504211605 | 15 | 338 | 11.3 | 22.5 | 0.00 | 0.00 | 0.00 | 54 | 1006.0 |
| 20260504210604 | 15 | 340 | 8.0 | 16.1 | 0.00 | 0.00 | 0.00 | 54 | 1005.8 |
| 20260504205608 | 15 | 333 | 8.0 | 16.1 | 0.00 | 0.00 | 0.00 | 55 | 1005.7 |
| 20260504204605 | 15 | 20 | 8.0 | 12.9 | 0.00 | 0.00 | 0.00 | 55 | 1005.7 |
| 20260504203605 | 15 | 42 | 9.7 | 19.3 | 0.00 | 0.00 | 0.00 | 56 | 1005.7 |
| 20260504202605 | 15 | 50 | 6.4 | 11.3 | 0.00 | 0.00 | 0.00 | 57 | 1005.6 |
| 20260504200606 | 15 | 342 | 8.0 | 11.3 | 0.00 | 0.00 | 0.00 | 57 | 1005.7 |
| 20260504195605 | 15 | 11 | 6.4 | 12.9 | 0.00 | 0.00 | 0.00 | 55 | 1005.4 |
| 20260504194604 | 15 | 26 | 6.4 | 11.3 | 0.00 | 0.00 | 0.00 | 57 | 1005.6 |
| 20260504193606 | 15 | 348 | 9.7 | 19.3 | 0.00 | 0.00 | 0.00 | 55 | 1005.5 |
| 20260504192607 | 15 | 339 | 11.3 | 20.9 | 0.00 | 0.00 | 0.00 | 57 | 1005.7 |
| 20260504191605 | 15 | 25 | 8.0 | 19.3 | 0.00 | 0.00 | 0.00 | 57 | 1005.6 |
| 20260504190605 | 14 | 6 | 8.0 | 11.3 | 0.00 | 0.00 | 0.00 | 58 | 1005.7 |
| 20260504185704 | 13 | 351 | 9.7 | 16.1 | 0.00 | 0.00 | 0.00 | 59 | 1005.8 |
| 20260504184803 | 13 | 351 | 4.8 | 12.9 | 0.00 | 0.00 | 0.00 | 60 | 1005.8 |
| 20260504183804 | 13 | 56 | 4.8 | 6.4 | 0.00 | 0.00 | 0.00 | 59 | 1005.9 |
| 20260504182805 | 13 | 168 | 8.0 | 12.9 | 0.00 | 0.00 | 0.00 | 60 | 1006.0 |
| 20260504181805 | 13 | 156 | 9.7 | 16.1 | 0.00 | 0.00 | 0.00 | 61 | 1006.2 |
| 20260504180903 | 12 | 342 | 8.0 | 11.3 | 0.00 | 0.00 | 0.00 | 61 | 1006.1 |
| 20260504175905 | 12 | 337 | 4.8 | 8.0 | 0.00 | 0.00 | 0.00 | 61 | 1006.3 |
| 20260504175003 | 12 | 52 | 4.8 | 6.4 | 0.00 | 0.00 | 0.00 | 59 | 1006.4 |
| 20260504173103 | 12 | 180 | 3.2 | 6.4 | 0.00 | 0.00 | 0.00 | 56 | 1006.1 |
| 20260504172106 | 13 | 332 | 6.4 | 11.3 | 0.00 | 0.00 | 0.00 | 56 | 1006.1 |
| 20260504171104 | 12 | 360 | 3.2 | 6.4 | 0.00 | 0.00 | 0.00 | 56 | 1006.0 |
| 20260504170203 | 12 | 339 | 8.0 | 12.9 | 0.00 | 0.00 | 0.00 | 57 | 1005.7 |
| 20260504160304 | 13 | 78 | 6.4 | 8.0 | 0.00 | 0.00 | 0.00 | 53 | 1005.6 |
| 20260504150505 | 12 | 281 | 11.3 | 11.3 | 0.00 | 0.00 | 0.00 | 52 | 1006.4 |
| 20260504140704 | 12 | 157 | 17.7 | 17.7 | 0.00 | 0.00 | 0.00 | 48 | 1007.2 |
| 20260504130725 | 10 | 247 | 6.4 | 9.7 | 0.00 | 0.00 | 0.00 | 51 | 1007.9 |
| 20260504100126 | 1 | 96 | 1.6 | 3.2 | 0.00 | 0.00 | 0.00 | 86 | 1007.4 |
| 20260504090126 | 1 | 135 | 0.0 | 0.0 | 0.00 | 0.00 | 0.00 | 80 | 1006.8 |
| 20260504081127 | 2 | 12 | 0.0 | 1.6 | 0.00 | 0.00 | 0.00 | 74 | 1007.0 |
| 20260504080227 | 2 | 360 | 0.0 | 0.0 | 0.00 | 0.00 | 0.00 | 74 | 1006.8 |
| 20260504070227 | 3 | 19 | 1.6 | 3.2 | 0.00 | 0.00 | 0.00 | 70 | 1006.7 |
| 20260504045526 | 4 | 342 | 1.6 | 3.2 | 0.00 | 0.00 | 0.00 | 67 | 1006.1 |
| 20260504044541 | 4 | 328 | 4.8 | 8.0 | 0.00 | 0.00 | 0.00 | 68 | 1006.0 |
| 20260504043627 | 4 | 335 | 4.8 | 8.0 | 0.00 | 0.00 | 0.00 | 67 | 1005.9 |
| 20260504042725 | 4 | 327 | 3.2 | 4.8 | 0.00 | 0.00 | 0.00 | 67 | 1005.8 |
| 20260504041728 | 5 | 329 | 3.2 | 4.8 | 0.00 | 0.00 | 0.00 | 65 | 1005.9 |
| 20260504035804 | 5 | 355 | 4.8 | 9.7 | 0.00 | 0.00 | 0.00 | 65 | 1005.7 |
| 20260504034903 | 5 | 329 | 4.8 | 8.0 | 0.00 | 0.00 | 0.00 | 64 | 1005.6 |
| 20260504033904 | 5 | 338 | 6.4 | 12.9 | 0.00 | 0.00 | 0.00 | 64 | 1005.5 |
| 20260504032922 | 5 | 354 | 3.2 | 9.7 | 0.00 | 0.00 | 0.00 | 64 | 1005.5 |
| 20260504031906 | 5 | 336 | 4.8 | 14.5 | 0.00 | 0.00 | 0.00 | 64 | 1005.4 |
| 20260504030003 | 5 | 334 | 6.4 | 12.9 | 0.00 | 0.00 | 0.00 | 63 | 1005.2 |
| 20260504025003 | 5 | 356 | 3.2 | 9.7 | 0.00 | 0.00 | 0.00 | 63 | 1005.2 |
| 20260504023004 | 6 | 332 | 6.4 | 12.9 | 0.00 | 0.00 | 0.00 | 62 | 1005.1 |
| 20260504020006 | 6 | 356 | 4.8 | 6.4 | 0.00 | 0.00 | 0.00 | 64 | 1004.8 |
| 20260504015005 | 6 | 324 | 6.4 | 12.9 | 0.00 | 0.00 | 0.00 | 63 | 1004.7 |
| 20260504014005 | 6 | 349 | 6.4 | 9.7 | 0.00 | 0.00 | 0.00 | 65 | 1004.8 |
| 20260504011006 | 7 | 346 | 6.4 | 9.7 | 0.00 | 0.00 | 0.00 | 66 | 1004.5 |
| 20260504010005 | 7 | 334 | 8.0 | 16.1 | 0.00 | 0.00 | 0.00 | 69 | 1004.3 |
| 20260504005004 | 7 | 339 | 8.0 | 14.5 | 0.00 | 0.00 | 0.00 | 70 | 1004.1 |
| 20260504003005 | 7 | 331 | 9.7 | 14.5 | 0.00 | 0.00 | 0.00 | 78 | 1003.7 |
| 20260504002002 | 7 | 352 | 9.7 | 16.1 | 0.00 | 0.00 | 0.00 | 86 | 1003.5 |
| 20260504000003 | 7 | 337 | 1.6 | 4.8 | 0.00 | 0.00 | 0.00 | 86 | 1003.4 |
| 20260503234104 | 7 | 7 | 3.2 | 6.4 | 0.00 | 0.00 | 0.00 | 84 | 1003.2 |
| 20260503233106 | 7 | 10 | 4.8 | 8.0 | 0.00 | 0.00 | 0.00 | 84 | 1003.2 |
| 20260503232204 | 8 | 355 | 4.8 | 6.4 | 0.00 | 0.00 | 0.00 | 83 | 1003.1 |
| 20260503231302 | 8 | 343 | 3.2 | 6.4 | 0.00 | 0.00 | 0.00 | 82 | 1002.9 |
| 20260503230305 | 8 | 13 | 6.4 | 8.0 | 0.00 | 0.00 | 0.00 | 81 | 1002.9 |
| 20260503225305 | 8 | 24 | 11.3 | 20.9 | 0.00 | 0.00 | 0.00 | 81 | 1002.7 |
| 20260503223404 | 8 | 347 | 6.4 | 9.7 | 0.00 | 0.00 | 0.00 | 84 | 1002.6 |
| 20260503222502 | 8 | 355 | 8.0 | 11.3 | 0.00 | 0.00 | 0.00 | 84 | 1002.6 |
| 20260503221519 | 7 | 16 | 11.3 | 17.7 | 0.00 | 0.00 | 0.00 | 84 | 1002.6 |
| 20260503220504 | 7 | 357 | 11.3 | 19.3 | 0.00 | 0.00 | 0.00 | 86 | 1002.4 |
| 20260503215521 | 7 | 8 | 8.0 | 11.3 | 0.00 | 0.00 | 0.00 | 86 | 1002.6 |
| 20260503214506 | 7 | 349 | 11.3 | 14.5 | 0.00 | 0.00 | 0.00 | 88 | 1002.6 |